Batumi International Airport
UGSB : rendu visible

Aérodrome :











RETROUVEZ-NOUS SUR...

 
LOGIN :

S'inscrire | Disclaimer

   EN    FR    IT 

 









Légende :    VFR   VFR Marginal   IFR   IFR Intensif   IFR Très Intensif
Visi : 
Plafond : 
>= 8 km
>= 3000ft
5 à 8 km
1000 à 3000 ft
1500m à 5 km
500 à 1000 ft
800 à 1500m
200 à 500 ft
< 800m
< 200 ft
Symboles :   Orages  Brouillard  Fortes neiges  Fortes précipitations  Vent > 20 kt







- Altitude de l'aérodrome : 105 ft
- Code IATA : BUS


UGSB - Batumi International

DERNIER METAR :
  • 300430Z 13009KT 9999 FEW020 25/20 Q1010 R13/70D NOSIG

METARs EXPIRÉS :
  • 300400Z 14009KT CAVOK 23/19 Q1010 R13/70D NOSIG
  • 300330Z 13010KT CAVOK 22/19 Q1010 R13/70D NOSIG
  • 300300Z 13010KT CAVOK 21/19 Q1010 R13/70D NOSIG
  • 300230Z 13010KT CAVOK 21/19 Q1010 R13/CLRD70 NOSIG
  • 300200Z 13010KT CAVOK 21/19 Q1009 R13/CLRD70 NOSIG

TAF TAF UGSB
Valide du 30 à 00h jusqu'au 31 à 00h UTC


292300Z 3000/3024 15008KT 9999 FEW023 TX29/3012Z TN22/3001Z
BECMG 3005/3007 27008KT CAVOK
BECMG 3017/3019 VRB03KT FEW023
FIR UGGG / Asie



MET'MAP, la Météo Aéronautique d'un coup d'oeil ! - Copyright ORBIFLY Décembre 2007 - Disclaimer

ORBIFLY MET'MAP TEAM :

Programmation & Développement : Alexandra Zaïnal
Conception & Développement : Baudouin d'Aumeries
Co-Programmation & Développement : Marc-Olivier Méhu
Soutien technique & logistique : Manuel Goepfert

Contact : metmap@orbifly.com




SOURCES & CREDITS :

   NOAA       Earth
Advisory